{"data":{"norad_id":40118,"intl_designator":"2014-049A","name":"GAOFEN-2","alt_names":[],"object_type":"PAYLOAD","status":"ACTIVE","operator":null,"country":"PRC","launch_date":"2014-08-19","launch_site_code":"TAISC","launch_vehicle":null,"mission":null,"orbit_class":"UNKNOWN","rcs_meters":3.506,"size_class":null,"mass_kg":null,"dimensions":null,"purposes":["earth_obs"],"wikipedia_slug":null,"has_3d_model":false,"image_url":null,"decayed_at":null,"tle_current":{"epoch":"2026-09-20T04:09:10.489248Z","epoch_age_seconds":42709,"freshness":"FRESH","line1":"1 40118U 14049A   26263.17303807  .00000246  00000+0  38702-4 0  9995","line2":"2 40118  98.0015 327.2463 0006024 291.0350  69.0217 14.81003665653292","mean_motion":14.81003665,"eccentricity":0.0006024,"inclination_deg":98.0015,"raan_deg":327.2463,"arg_perigee_deg":291.035,"mean_anomaly_deg":69.0217,"bstar":3.8702e-5,"rev_number":65329,"period_min":97.231359653658,"perigee_km":621.93845418511,"apogee_km":630.37722861003,"semimajor_km":7004.2948413976,"source":"CELESTRAK","updated_at":"2026-09-20T09:00:33.961865Z"}}}